Port Isabel, TX

7:10 AM CDT on July 28, 2017 (GMT -0500)
Port Isabel-Cameron County

Weather History for KPIL - December, 2012

Change the Weather History Date:

Tuesday, December 25, 2012

  Actual Average (KBRO) Record (KBRO)
Temperature  
Mean Temperature 74 °F -  
Max Temperature 87 °F 68 °F 88 °F (2012)
Min Temperature 54 °F 48 °F 20 °F (1983)
Cooling Degree Days 8    
Growing Degree Days 24 (Base 50)    
Moisture  
Dew Point 55 °F    
Average Humidity 57    
Maximum Humidity 84    
Minimum Humidity 24    
Precipitation  
Precipitation 0.00 in - - ()
Sea Level Pressure  
Sea Level Pressure 29.76 in    
Wind  
Wind Speed 12 mph (SW)    
Max Wind Speed 20 mph    
Max Gust Speed 29 mph    
Visibility 9 miles    
Events      
Averages and records for this station are not official NWS values.
T = Trace of Precipitation, MM = Missing Value Source: NWS Daily Summary

Daily Weather History Graph

Daily Weather History Graph

Search for Another Location

Airport or City:

Trip Planner

Search our weather history database for the weather conditions in past years. The results will help you decide how hot, cold, wet, or windy it might be!

Date:

Astronomy

Dec. 25, 2012 Rise Set
Actual Time 7:14 AM CST 5:45 PM CST
Civil Twilight 6:49 AM CST 6:10 PM CST
Nautical Twilight 6:20 AM CST 6:39 PM CST
Astronomical Twilight 5:52 AM CST 7:07 PM CST
Moon 3:50 PM CST (12/25) 4:52 AM CST (12/25)
Length of Visible Light 11h 21m
Length of Day
10h 30m
Waxing Gibbous, 94% of the Moon is Illuminated
Dec 25
Waxing Gibbous
Dec 28
Full
Jan 4
Last Quarter
Jan 11
New
Jan 18
First Quarter

Hourly Weather History & Observations

Time (CST) Temp. Heat Index Dew Point Humidity Pressure Visibility Wind Dir Wind Speed Gust Speed Precip Events Conditions
12:53 AM 73.0 °F - 68.0 °F 84% 29.71 in 8.0 mi South 9.2 mph - N/A   Overcast
1:28 AM 73.4 °F - 68.0 °F 83% 29.70 in 8.0 mi South 11.5 mph - N/A   Mostly Cloudy
1:53 AM 73.9 °F - 68.0 °F 82% 29.69 in 8.0 mi SSE 13.8 mph - N/A   Partly Cloudy
2:53 AM 73.9 °F - 68.0 °F 82% 29.68 in 8.0 mi South 10.4 mph - N/A   Overcast
3:35 AM 73.4 °F - 66.2 °F 78% 29.67 in 8.0 mi South 9.2 mph - N/A   Mostly Cloudy
3:53 AM 73.9 °F - 66.9 °F 79% 29.67 in 8.0 mi South 10.4 mph - N/A   Overcast
4:49 AM 73.4 °F - 66.2 °F 78% 29.67 in 9.0 mi South 6.9 mph - N/A   Mostly Cloudy
4:53 AM 73.0 °F - 66.9 °F 81% 29.67 in 8.0 mi South 9.2 mph - N/A   Scattered Clouds
5:53 AM 72.0 °F - 66.9 °F 84% 29.64 in 8.0 mi South 12.7 mph - N/A   Clear
6:53 AM 72.0 °F - 66.9 °F 84% 29.63 in 8.0 mi South 13.8 mph - N/A   Clear
7:53 AM 72.0 °F - 66.9 °F 84% 29.66 in 7.0 mi South 13.8 mph - N/A   Clear
8:53 AM 75.0 °F - 68.0 °F 79% 29.68 in 7.0 mi South 13.8 mph 23.0 mph N/A   Clear
9:53 AM 79.0 °F - 66.9 °F 66% 29.71 in 8.0 mi SSW 18.4 mph 25.3 mph N/A   Clear
10:53 AM 82.0 °F 84.1 °F 66.0 °F 58% 29.72 in 8.0 mi SSW 15.0 mph 24.2 mph N/A   Clear
11:53 AM 84.9 °F 85.9 °F 63.0 °F 48% 29.71 in 9.0 mi WSW 12.7 mph 18.4 mph N/A   Clear
12:53 PM 87.1 °F 85.3 °F 55.0 °F 33% 29.70 in 10.0 mi NNW 18.4 mph 25.3 mph N/A   Clear
1:53 PM 87.1 °F 84.9 °F 53.1 °F 31% 29.70 in 10.0 mi NNW 18.4 mph 25.3 mph N/A   Clear
2:53 PM 82.9 °F - 43.0 °F 24% 29.72 in 10.0 mi North 18.4 mph 28.8 mph N/A   Clear
3:53 PM 80.1 °F - 50.0 °F 35% 29.74 in 9.0 mi NNE 17.3 mph 23.0 mph N/A   Clear
4:53 PM 78.1 °F - 46.0 °F 32% 29.76 in 8.0 mi NNE 13.8 mph 23.0 mph N/A   Clear
5:53 PM 73.9 °F - 35.1 °F 24% 29.79 in 8.0 mi North 15.0 mph - N/A   Clear
6:53 PM 68.0 °F - 41.0 °F 37% 29.85 in 10.0 mi North 6.9 mph - N/A   Clear
7:53 PM 64.9 °F - 43.0 °F 45% 29.90 in 10.0 mi North 8.1 mph - N/A   Clear
8:53 PM 66.9 °F - 32.0 °F 27% 29.95 in 10.0 mi North 11.5 mph - N/A   Clear
9:53 PM 64.9 °F - 28.0 °F 25% 30.01 in 10.0 mi North 18.4 mph - N/A   Clear
10:53 PM 60.1 °F - 36.0 °F 41% 30.05 in 10.0 mi North 19.6 mph 28.8 mph N/A   Clear
11:53 PM 54.0 °F - 33.1 °F 45% 30.10 in 10.0 mi North 18.4 mph 25.3 mph N/A   Clear